Weather History for Carroll, IA

Change the Weather History Date:

Thursday, June 20, 2013

  Actual Average Record
Temperature  
Mean Temperature 78 °F -  
Max Temperature 89 °F 83 °F 102 °F (1988)
Min Temperature 66 °F 59 °F 44 °F (1961)
Cooling Degree Days 12    
Growing Degree Days 28 (Base 50)    
Moisture  
Dew Point 66 °F    
Average Humidity 67    
Maximum Humidity 94    
Minimum Humidity 46    
Precipitation  
Precipitation 0.00 in - - ()
Sea Level Pressure  
Sea Level Pressure 29.94 in    
Wind  
Wind Speed 14 mph (SSE)    
Max Wind Speed 26 mph    
Max Gust Speed 38 mph    
Visibility 10 miles    
Events      
Averages and records for this station are not official NWS values.
T = Trace of Precipitation, MM = Missing Value Source: NWS Daily Summary

Daily Weather History Graph

Daily Weather History Graph

Search for Another Location

Airport:

Trip Planner

Search our weather history database for the weather conditions in past years. The results will help you decide how hot, cold, wet, or windy it might be!

Date:

Astronomy

Jun. 20, 2013 Rise Set
Actual Time 5:43 AM CDT 8:58 PM CDT
Civil Twilight 5:08 AM CDT 9:32 PM CDT
Nautical Twilight 4:24 AM CDT 10:17 PM CDT
Astronomical Twilight 3:30 AM CDT 11:11 PM CDT
Moon 5:59 PM CDT (6/20) 3:12 AM CDT (6/20)
Length of Visible Light 16h 23m
Length of Day
15h 14m
Waxing Gibbous, 89% of the Moon is Illuminated
Jun 20
Waxing Gibbous
Jun 23
Full
Jun 29
Last Quarter
Jul 8
New
Jul 15
First Quarter

Hourly Weather History & Observations

Time (CDT) Temp. Heat Index Dew Point Humidity Pressure Visibility Wind Dir Wind Speed Gust Speed Precip Events Conditions
12:15 AM 71.6 °F - 66.2 °F 83% 30.00 in 10.0 mi SE 10.4 mph - N/A   Clear
12:35 AM 71.6 °F - 64.4 °F 78% 30.00 in 10.0 mi SSE 10.4 mph - N/A   Clear
12:55 AM 69.8 °F - 64.4 °F 83% 30.00 in 10.0 mi SSE 9.2 mph - N/A   Clear
1:15 AM 69.8 °F - 64.4 °F 83% 29.99 in 10.0 mi SSE 10.4 mph - N/A   Clear
1:35 AM 69.8 °F - 64.4 °F 83% 29.99 in 10.0 mi SSE 11.5 mph - N/A   Clear
1:55 AM 69.8 °F - 64.4 °F 83% 29.99 in 10.0 mi SSE 10.4 mph - N/A   Clear
2:15 AM 69.8 °F - 64.4 °F 83% 29.99 in 10.0 mi SSE 9.2 mph - N/A   Clear
2:35 AM 69.8 °F - 64.4 °F 83% 29.99 in 10.0 mi SE 9.2 mph - N/A   Clear
2:55 AM 68.0 °F - 64.4 °F 88% 29.99 in 10.0 mi SSE 10.4 mph - N/A   Clear
3:15 AM 68.0 °F - 64.4 °F 88% 29.98 in 10.0 mi SE 9.2 mph - N/A   Clear
3:35 AM 68.0 °F - 64.4 °F 88% 29.99 in 10.0 mi SSE 9.2 mph - N/A   Clear
3:55 AM 68.0 °F - 64.4 °F 88% 29.98 in 10.0 mi SE 8.1 mph - N/A   Clear
4:15 AM 68.0 °F - 64.4 °F 88% 29.98 in 10.0 mi SE 6.9 mph - N/A   Clear
4:35 AM 66.2 °F - 64.4 °F 94% 29.98 in 10.0 mi SE 8.1 mph - N/A   Clear
4:55 AM 66.2 °F - 64.4 °F 94% 29.98 in 10.0 mi SSE 8.1 mph - N/A   Clear
5:15 AM 66.2 °F - 64.4 °F 94% 29.98 in 10.0 mi SSE 6.9 mph - N/A   Clear
5:35 AM 66.2 °F - 64.4 °F 94% 29.98 in 10.0 mi SE 8.1 mph - N/A   Clear
5:55 AM 66.2 °F - 64.4 °F 94% 29.98 in 10.0 mi SE 8.1 mph - N/A   Clear
6:15 AM 66.2 °F - 64.4 °F 94% 29.98 in 10.0 mi SE 10.4 mph - N/A   Clear
6:35 AM 68.0 °F - 64.4 °F 88% 29.99 in 10.0 mi SE 11.5 mph - N/A   Clear
6:55 AM 68.0 °F - 64.4 °F 88% 29.99 in 10.0 mi SSE 13.8 mph - N/A   Clear
7:15 AM 69.8 °F - 64.4 °F 83% 29.98 in 10.0 mi SSE 12.7 mph - N/A   Clear
7:35 AM 71.6 °F - 64.4 °F 78% 29.98 in 10.0 mi SSE 10.4 mph - N/A   Clear
7:55 AM 73.4 °F - 66.2 °F 78% 29.98 in 10.0 mi SSE 10.4 mph - N/A   Clear
8:15 AM 73.4 °F - 66.2 °F 78% 29.97 in 10.0 mi SSE 15.0 mph - N/A   Clear
8:35 AM 75.2 °F - 66.2 °F 73% 29.98 in 10.0 mi SSE 17.3 mph - N/A   Clear
8:55 AM 77.0 °F - 66.2 °F 69% 29.98 in 10.0 mi SSE 13.8 mph 20.7 mph N/A   Partly Cloudy
9:15 AM 77.0 °F - 66.2 °F 69% 29.99 in 10.0 mi SSE 15.0 mph - N/A   Partly Cloudy
9:35 AM 78.8 °F - 66.2 °F 65% 29.99 in 10.0 mi SSE 17.3 mph - N/A   Scattered Clouds
9:55 AM 80.6 °F 82.7 °F 66.2 °F 61% 29.99 in 9.0 mi SSE 16.1 mph - N/A   Scattered Clouds
10:15 AM 80.6 °F 82.7 °F 66.2 °F 61% 29.98 in 10.0 mi SSE 19.6 mph - N/A   Clear
10:35 AM 82.4 °F 84.6 °F 66.2 °F 58% 29.98 in 9.0 mi SSE 17.3 mph - N/A   Partly Cloudy
10:55 AM 82.4 °F 84.6 °F 66.2 °F 58% 29.97 in 10.0 mi SSE 20.7 mph - N/A   Light Drizzle
11:15 AM 82.4 °F 83.9 °F 64.4 °F 54% 29.97 in 10.0 mi South 18.4 mph 27.6 mph N/A   Mostly Cloudy
11:35 AM 84.2 °F 86.6 °F 66.2 °F 55% 29.96 in 10.0 mi South 20.7 mph 32.2 mph N/A   Light Drizzle
11:55 AM 84.2 °F 85.6 °F 64.4 °F 51% 29.96 in 10.0 mi South 19.6 mph 32.2 mph N/A   Light Drizzle
12:15 PM 84.2 °F 85.6 °F 64.4 °F 51% 29.96 in 10.0 mi SSE 18.4 mph 29.9 mph N/A   Light Drizzle
12:35 PM 86.0 °F 88.2 °F 66.2 °F 51% 29.95 in 10.0 mi SSE 23.0 mph 29.9 mph N/A   Light Drizzle
12:55 PM 87.8 °F 89.4 °F 64.4 °F 46% 29.94 in 10.0 mi SSE 25.3 mph 33.4 mph N/A   Light Drizzle
1:15 PM 87.8 °F 89.4 °F 64.4 °F 46% 29.93 in 10.0 mi South 23.0 mph 31.1 mph N/A   Light Drizzle
1:35 PM 87.8 °F 89.4 °F 64.4 °F 46% 29.92 in 10.0 mi SSE 24.2 mph 32.2 mph N/A   Light Drizzle
1:55 PM 87.8 °F 90.4 °F 66.2 °F 49% 29.91 in 7.0 mi SSE 23.0 mph 35.7 mph N/A   Light Drizzle
2:15 PM 87.8 °F 90.4 °F 66.2 °F 49% 29.91 in 10.0 mi SSE 25.3 mph 38.0 mph N/A   Light Drizzle
2:35 PM 87.8 °F 90.4 °F 66.2 °F 49% 29.91 in 10.0 mi South 26.5 mph 33.4 mph N/A   Partly Cloudy
2:55 PM 87.8 °F 90.4 °F 66.2 °F 49% 29.91 in 10.0 mi South 26.5 mph 32.2 mph N/A   Light Drizzle
3:15 PM 87.8 °F 90.4 °F 66.2 °F 49% 29.91 in 10.0 mi South 20.7 mph 32.2 mph N/A   Light Drizzle
3:35 PM 87.8 °F 90.4 °F 66.2 °F 49% 29.90 in 10.0 mi SSE 25.3 mph 34.5 mph N/A   Light Drizzle
3:55 PM 89.6 °F 93.4 °F 68.0 °F 49% 29.90 in 9.0 mi SSE 20.7 mph 28.8 mph N/A   Partly Cloudy
4:15 PM 87.8 °F 90.4 °F 66.2 °F 49% 29.90 in 10.0 mi SSE 21.9 mph 31.1 mph N/A   Light Drizzle
4:35 PM 86.0 °F 89.4 °F 68.0 °F 55% 29.90 in 9.0 mi SSE 20.7 mph 32.2 mph N/A   Light Drizzle
4:55 PM 87.8 °F 91.4 °F 68.0 °F 52% 29.89 in 10.0 mi SSE 20.7 mph 28.8 mph N/A   Mostly Cloudy
5:15 PM 86.0 °F 89.4 °F 68.0 °F 55% 29.89 in 10.0 mi SSE 24.2 mph - N/A   Mostly Cloudy
5:35 PM 87.8 °F 91.4 °F 68.0 °F 52% 29.89 in 10.0 mi SSE 23.0 mph 29.9 mph N/A   Mostly Cloudy
5:55 PM 86.0 °F 89.4 °F 68.0 °F 55% 29.89 in 10.0 mi SSE 21.9 mph 28.8 mph N/A   Light Drizzle
6:15 PM 86.0 °F 89.4 °F 68.0 °F 55% 29.89 in 10.0 mi SSE 23.0 mph 29.9 mph N/A   Mostly Cloudy
6:35 PM 86.0 °F 89.4 °F 68.0 °F 55% 29.88 in 7.0 mi SSE 24.2 mph - N/A   Mostly Cloudy
6:55 PM 84.2 °F 87.3 °F 68.0 °F 58% 29.88 in 10.0 mi SSE 17.3 mph 28.8 mph N/A   Light Drizzle
7:15 PM 84.2 °F 87.3 °F 68.0 °F 58% 29.89 in 10.0 mi SSE 20.7 mph 28.8 mph N/A   Light Drizzle
7:35 PM 84.2 °F 86.6 °F 66.2 °F 55% 29.89 in 10.0 mi SSE 20.7 mph 26.5 mph N/A   Overcast
7:55 PM 84.2 °F 87.3 °F 68.0 °F 58% 29.88 in 10.0 mi SSE 20.7 mph 28.8 mph N/A   Mostly Cloudy
8:15 PM 82.4 °F 85.4 °F 68.0 °F 62% 29.89 in 10.0 mi SSE 18.4 mph - N/A   Partly Cloudy
8:35 PM 82.4 °F 85.4 °F 68.0 °F 62% 29.89 in 10.0 mi SSE 15.0 mph 21.9 mph N/A   Partly Cloudy
8:55 PM 80.6 °F 83.2 °F 68.0 °F 65% 29.89 in 10.0 mi SSE 16.1 mph - N/A   Scattered Clouds
9:15 PM 80.6 °F 82.7 °F 66.2 °F 61% 29.90 in 10.0 mi SSE 16.1 mph 23.0 mph N/A   Overcast
9:35 PM 80.6 °F 82.7 °F 66.2 °F 61% 29.91 in 10.0 mi SE 15.0 mph - N/A   Overcast
9:55 PM 80.6 °F 82.7 °F 66.2 °F 61% 29.91 in 8.0 mi SSE 15.0 mph - N/A   Overcast
10:15 PM 80.6 °F 82.7 °F 66.2 °F 61% 29.91 in 10.0 mi SSE 13.8 mph - N/A   Overcast
10:35 PM 78.8 °F - 66.2 °F 65% 29.92 in 10.0 mi SSE 16.1 mph - N/A   Overcast
10:55 PM 78.8 °F - 68.0 °F 69% 29.91 in 10.0 mi SSE 15.0 mph - N/A   Overcast
11:15 PM 78.8 °F - 68.0 °F 69% 29.91 in 10.0 mi SSE 17.3 mph - N/A   Overcast
11:35 PM 78.8 °F - 68.0 °F 69% 29.91 in 10.0 mi SSE 16.1 mph - N/A   Mostly Cloudy
11:55 PM 77.0 °F - 68.0 °F 74% 29.90 in 10.0 mi SSE 15.0 mph - N/A   Mostly Cloudy